星链-36514(STARLINK-36514)

导读 | 豆包AI

STARLINK-36514是美国于2026年1月30日发射的星链卫星,归属太空探索技术公司(SpaceX)的星链互联网星座项目。星链计划旨在构建全球覆盖的低轨卫星互联网,为地面偏远地区、海洋航空等场景提供高速宽带服务,该卫星入轨后将进一步扩充星链星座的服务覆盖范围与网络容量,推动全球卫星通信网络的部署进程。

基本信息
目录编号:
67641
目录名称:
STARLINK-36514
国际标识:
2026-020AA
轨道中心:
EARTH
卫星名称:
星链-36514
卫星全名:
星链-36514(STARLINK-36514)
卫星状态:
在轨 (已飞行115 天)
发射日期:
2026-01-30 UTC
国别 :
美国 (US)
星等 :
--
轨道信息
数据来源 国际轨道数据 AOE轨道数据
星历时间 2026-05-25T10:08:30+0800
7小时前
查看轨道信息
2026-05-18T23:00:00+0800
6天前
查看轨道信息
半长轴 6861.08km 6861.222km
偏心率 0.0000458 0.0000668
轨道倾角 43.001° 43.000°
近地点辐角 135.301° 246.041°
升交点赤经 68.670° 105.176°
平近点角 224.788° 163.709°
近地点 482.628km 482.626km
远地点 483.258km 483.544km
周期 94.265分钟 94.267分钟
每日圈数 15.276156 15.275682
详细信息
固有亮度:
5
最大亮度:
2.5
卫星平台:
Starlink V1.0
覆盖范围:
全球
运营商:
太空探索技术公司
运营商所在国:
美国
制造商(研发单位):
太空探索技术公司
制造商所在国:
美国
使用方式:
暂无
卫星简介
Starlink 计划是 SpaceX 推出的全球卫星互联网项目,通过发射低轨道卫星,为全球尤其是偏远地区提供高速、低延迟的互联网服务。自 2019 年起,Starlink 已部署数千颗卫星,旨在缩小全球数字鸿沟,推动互联网普及。该项目还为军事、航空等行业提供通信支持,带来广泛经济效益。
2D轨道图
3D轨道图
轨道高度分析图
轨道倾角分析图
轨道综合分析图
查看轨道综合分析图